TimeCST,TemperatureF,Dew PointF,Humidity,Sea Level PressureIn,VisibilityMPH,Wind Direction,Wind SpeedMPH,Gust SpeedMPH,PrecipitationIn,Events,Conditions,WindDirDegrees,DateUTC
12:53 AM,30.9,21.9,69,30.06,10.0,West,8.1,-,N/A,,Clear,260,2012-12-04 06:53:00
1:53 AM,32.0,21.9,66,30.07,10.0,West,12.7,-,N/A,,Clear,260,2012-12-04 07:53:00
2:53 AM,32.0,21.9,66,30.08,10.0,West,9.2,-,N/A,,Clear,260,2012-12-04 08:53:00
3:53 AM,30.9,21.9,69,30.09,10.0,WSW,11.5,-,N/A,,Clear,250,2012-12-04 09:53:00
4:53 AM,27.0,19.0,72,30.11,10.0,West,8.1,-,N/A,,Clear,260,2012-12-04 10:53:00
5:53 AM,30.0,21.0,69,30.13,10.0,West,11.5,-,N/A,,Clear,260,2012-12-04 11:53:00
6:53 AM,30.0,21.0,69,30.16,10.0,West,11.5,-,N/A,,Clear,260,2012-12-04 12:53:00
7:53 AM,25.0,19.0,78,30.21,10.0,ENE,8.1,-,N/A,,Clear,60,2012-12-04 13:53:00
8:53 AM,33.1,23.0,66,30.22,10.0,West,4.6,-,N/A,,Clear,280,2012-12-04 14:53:00
9:53 AM,39.0,23.0,53,30.25,10.0,NW,8.1,-,N/A,,Clear,320,2012-12-04 15:53:00
10:53 AM,43.0,24.1,47,30.26,10.0,NNW,8.1,-,N/A,,Clear,340,2012-12-04 16:53:00
11:53 AM,46.0,25.0,44,30.25,10.0,NNW,5.8,-,N/A,,Clear,340,2012-12-04 17:53:00
12:53 PM,46.0,26.1,46,30.25,10.0,NNW,9.2,-,N/A,,Clear,340,2012-12-04 18:53:00
1:53 PM,48.0,26.1,42,30.25,10.0,NW,8.1,-,N/A,,Clear,310,2012-12-04 19:53:00
2:53 PM,48.0,26.1,42,30.25,10.0,NNW,11.5,-,N/A,,Clear,340,2012-12-04 20:53:00
3:53 PM,45.0,25.0,46,30.28,10.0,NNE,9.2,-,N/A,,Clear,30,2012-12-04 21:53:00
4:53 PM,36.0,23.0,59,30.30,10.0,NE,8.1,-,N/A,,Clear,40,2012-12-04 22:53:00
5:53 PM,30.0,19.9,66,30.33,10.0,NE,6.9,-,N/A,,Clear,40,2012-12-04 23:53:00
6:53 PM,28.0,19.0,69,30.34,10.0,NE,8.1,-,N/A,,Clear,50,2012-12-05 00:53:00
7:53 PM,27.0,17.1,66,30.35,10.0,NE,6.9,-,N/A,,Clear,40,2012-12-05 01:53:00
8:53 PM,24.1,17.1,75,30.37,10.0,Calm,Calm,-,N/A,,Clear,0,2012-12-05 02:53:00
9:53 PM,21.9,15.1,75,30.38,10.0,NE,6.9,-,N/A,,Clear,50,2012-12-05 03:53:00
10:53 PM,21.0,14.0,74,30.39,10.0,ENE,6.9,-,N/A,,Clear,60,2012-12-05 04:53:00
11:53 PM,19.9,12.9,74,30.40,10.0,ENE,6.9,-,N/A,,Clear,70,2012-12-05 05:53:00